This demonstration page uses our WeatherBlox Daily Observations layout. Learn more.

Left ArrowRight Arrow

38.80484, -77.04692

Hourly Observations for November 24, 2021

Temp ( °F °C ) Dew Point ( °F °C ) Humidity (%) Winds ( mph kmh ) Pressure ( in mb ) Visibility ( mi km ) Precip ( " mm )
12:52 am 00:52 Clear 34 1.1 15 -9.4 46 46 NNW 7 11 30.31 1026 10 16 0.00 0.00
1:52 am 01:52 Clear 34 1.1 16 -8.9 48 48 NNW 6 9 30.32 1027 10 16 0.00 0.00
2:52 am 02:52 Clear 34 1.1 16 -8.9 48 48 Calm 30.33 1027 10 16 0.00 0.00
3:52 am 03:52 Clear 32 0 16 -8.9 52 52 N 5 7 30.35 1028 10 16 0.00 0.00
4:52 am 04:52 Clear 31 -0.6 18 -7.8 59 59 WSW 3 6 30.37 1028 10 16 0.00 0.00
5:52 am 05:52 Clear 32 0 17 -8.3 54 54 NW 8 13 30.39 1029 10 16 0.00 0.00
6:52 am 06:52 Mostly Clear 33 0.6 19 -7.2 56 56 Calm 30.41 1030 10 16 0.00 0.00
7:52 am 07:52 Mostly Sunny 36 2.2 20 -6.7 52 52 Calm 30.44 1031 10 16 0.00 0.00
8:52 am 08:52 Sunny 38 3.3 22 -5.6 52 52 Calm 30.45 1031 10 16 0.00 0.00
9:52 am 09:52 Sunny 43 6.1 20 -6.7 40 40 NW 7 11 30.46 1032 10 16 0.00 0.00
10:52 am 10:52 Sunny 45 7.2 20 -6.7 37 37 NNW 10 17 30.45 1031 10 16 0.00 0.00
11:52 am 11:52 Sunny 47 8.3 19 -7.2 33 33 NW 8 13 30.42 1030 10 16 0.00 0.00
12:52 pm 12:52 Sunny 47 8.3 20 -6.7 34 34 VRB 3 6 30.40 1030 10 16 0.00 0.00
1:52 pm 13:52 Mostly Sunny 49 9.4 19 -7.2 31 31 VRB 3 6 30.37 1029 10 16 0.00 0.00
2:52 pm 14:52 Partly Cloudy 49 9.4 20 -6.7 32 32 SW 7 11 30.37 1028 10 16 0.00 0.00
3:52 pm 15:52 Mostly Cloudy 47 8.3 23 -5 39 39 S 8 13 30.37 1029 10 16 0.00 0.00
4:52 pm 16:52 Mostly Cloudy 45 7.2 23 -5 42 42 S 8 13 30.37 1029 10 16 0.00 0.00
5:52 pm 17:52 Mostly Cloudy 43 6.1 24 -4.4 47 47 S 5 7 30.37 1029 10 16 0.00 0.00
6:52 pm 18:52 Partly Cloudy 43 6.1 27 -2.8 53 53 S 6 9 30.37 1028 10 16 0.00 0.00
7:52 pm 19:52 Partly Cloudy 42 5.6 23 -5 47 47 SSW 5 7 30.37 1028 10 16 0.00 0.00
8:52 pm 20:52 Mostly Cloudy 41 5 22 -5.6 47 47 S 3 6 30.37 1028 10 16 0.00 0.00
9:52 pm 21:52 Mostly Cloudy 40 4.4 29 -1.7 65 65 SSW 6 9 30.34 1027 10 16 0.00 0.00
10:52 pm 22:52 Mostly Cloudy 39 3.9 26 -3.3 60 60 SSW 5 7 30.32 1027 10 16 0.00 0.00
11:52 pm 23:52 Mostly Cloudy 38 3.3 25 -3.9 60 60 SSW 5 7 30.29 1026 10 16 0.00 0.00

Powered by AerisWeather